Showing default

EUTE 5W B, 44624

Orbit data source: Space-Track

EUTE 5W B, 44624 is a payload satellite owned by EutelsatSA (FR) in GEO that was launched on Wed, 09 Oct 2019 UTC via a PROTON-M/BRIZ-M launch vehicle from the Tyuratam Missile And Space Complex (TTMTR). Payloads include a variety of satellites, spacecraft, and rockets equipped with specific instruments for various scientific and technological missions. These include communications satellites like Starlink; space stations such as the ISS; scientific satellites like the Hubble; Earth observation satellites from companies like Planet Labs, Umbra, and HawkEye 360; GPS; miniature CubeSats for education and research; and military/defense satellites.

Not visible in the next 10 days
EUTE 5W B details
Identifier
44624, 2019-067A
Orbit
GEO
Last TLE update11 hours ago
Origin
Flag of FREutelsatSA (FR / EUTE)
ManufacturerNGIS SSG
MissionPartially operational Commercial Communications
Bus & MotorGEOSTAR-2, IHI BT-4?
Mass2,864 kg wet, ~2,200 kg dry
Launch date (UTC)
2019-10-09 (5 years ago)
Launch vehicle
PROTON-M/BRIZ-M
Launch site
Tyuratam Missile And Space Complex (TTMTR)
Object type
Payload
Rocket body
Debris
Shape & HBRBox + 2 Pan, Unknown HBR
Radar Cross Section28.221 m², Large (>1 m²)

Expand to show TLE details & history

TLE from 11 hours ago
0 EUTE 5W B
1 44624U 19067A   24361.20257542 -.00000014  00000-0  00000-0 0  9992
2 44624   0.0616 357.7435 0003117 278.0580 247.3173  1.00272039 19046
Epoch: 2024-12-26T04:51Z
Definitive object data (Epoch: 2024-12-26T04:51:42.516Z)
Latitude0.02057°
Longitude-5.03451°
Altitude35,791.094 km
Speed3.074 km/s
True Right ascension10h 52m 18s
True Declination0° 01' 14"
Sunlit
Object was in daylight at TLE epoch
Visualization TLE readout
Latitude-0.04424°
Longitude157.84446°
Altitude35,777.556 km
Speed3.075 km/s
Apparent Right ascension22h 09m 24s
Apparent Declination-5° 24' 54"
Sunlit
Object is in daylight
Visualization observer readout
Local Sidereal Time15:03:14
Azimuth83.456° E
Elevation-16.137°
Doppler factor1
Orbital elements
Apogee altitude35,800.737 km
Perigee altitude35,774.451 km
Semi-major axis42,165.731 km
Eccentricity0.0003117
Inclination0.0616°
RAAN357.7435°
Arg. of periapsis278.058°
True anomaly247.28435°
Mean anomaly247.3173°
Eccentric anomaly247.30082°
Mean motion0.25067 °/min
BSTARUnknown
Orbital period1436.15 mins
Loading historical data...
44624 neighbors
Authenticating...
Loading maneuver chart data...
Loading historical data...
Loading historical data...
Loading historical data...
Loading historical data...
Loading historical data...
Loading historical data...
Loading historical data...
Other satellites on launch #67 in the year 2019 (2019-10-09 UTC)

EUTE 5W B Visibility forecast

Observer location: undefined°, undefined

EUTE 5W B is not visible in the next 10 days
Span
Click to sort rows by Start time (UTC) header in descending order
Start Az.
Max El. time (UTC)
Max El. Az.
Max El.
End time (UTC)
End Az.
|